Weather History for Enid, OK

Change the Weather History Date:

Friday, June 28, 2013

  Actual Average Record
Temperature  
Mean Temperature 84 °F -  
Max Temperature 100 °F 89 °F 105 °F (2012)
Min Temperature 69 °F 68 °F 59 °F (2006)
Cooling Degree Days 20    
Growing Degree Days 34 (Base 50)    
Moisture  
Dew Point 64 °F    
Average Humidity 52    
Maximum Humidity 100    
Minimum Humidity 25    
Precipitation  
Precipitation 0.00 in - - ()
Sea Level Pressure  
Sea Level Pressure 29.94 in    
Wind  
Wind Speed 9 mph (North)    
Max Wind Speed 17 mph    
Max Gust Speed 23 mph    
Visibility 10 miles    
Events      
Averages and records for this station are not official NWS values.
T = Trace of Precipitation, MM = Missing Value Source: NWS Daily Summary

Daily Weather History Graph

Daily Weather History Graph

Search for Another Location

Airport:

Trip Planner

Search our weather history database for the weather conditions in past years. The results will help you decide how hot, cold, wet, or windy it might be!

Date:

Astronomy

Jun. 28, 2013 Rise Set
Actual Time 6:15 AM CDT 8:53 PM CDT
Civil Twilight 5:45 AM CDT 9:23 PM CDT
Nautical Twilight 5:07 AM CDT 10:01 PM CDT
Astronomical Twilight 4:25 AM CDT 10:43 PM CDT
Moon 12:00 AM CDT (6/28) 12:14 PM CDT (6/28)
Length of Visible Light 15h 38m
Length of Day
14h 37m
Waning Gibbous, 66% of the Moon is Illuminated
Jun 28
Waning Gibbous
Jun 29
Last Quarter
Jul 8
New
Jul 15
First Quarter
Jul 22
Full

Hourly Weather History & Observations

Time (CDT) Temp. Heat Index Dew Point Humidity Pressure Visibility Wind Dir Wind Speed Gust Speed Precip Events Conditions
12:15 AM 78.8 °F - 60.8 °F 54% 29.84 in 10.0 mi East 13.8 mph 23.0 mph N/A   Clear
12:35 AM - - - N/A% 29.84 in 10.0 mi WSW 9.2 mph - N/A   Clear
12:55 AM - - - N/A% 29.85 in 10.0 mi West 10.4 mph - N/A   Clear
1:35 AM - - - N/A% 29.92 in 10.0 mi North 17.3 mph 21.9 mph N/A   Clear
1:55 AM - - - N/A% 29.92 in 10.0 mi NNW 12.7 mph 19.6 mph N/A   Clear
2:15 AM - - - N/A% 29.93 in 10.0 mi NW 8.1 mph - N/A   Clear
2:35 AM - - - N/A% 29.94 in 10.0 mi NNW 9.2 mph - N/A   Clear
2:55 AM - - - N/A% 29.95 in 10.0 mi NW 8.1 mph - N/A   Clear
3:15 AM - - - N/A% 29.95 in 10.0 mi NNW 8.1 mph - N/A   Clear
3:35 AM - - - N/A% 29.94 in 10.0 mi NW 8.1 mph - N/A   Clear
3:55 AM - - - N/A% 29.95 in 10.0 mi North 5.8 mph - N/A   Clear
4:15 AM - - - N/A% 29.96 in 10.0 mi East 3.5 mph - N/A   Clear
4:35 AM - - - N/A% 29.97 in 10.0 mi NNW 4.6 mph - N/A   Clear
4:55 AM - - - N/A% 29.98 in 10.0 mi NNW 4.6 mph - N/A   Clear
5:15 AM - - - N/A% 29.98 in 10.0 mi Calm Calm - N/A   Clear
5:35 AM - - - N/A% 29.99 in 10.0 mi Calm Calm - N/A   Clear
5:55 AM - - - N/A% 29.99 in 10.0 mi South 4.6 mph - N/A   Clear
6:20 AM 69.8 °F - 69.8 °F 100% 30.00 in 7.0 mi Calm Calm - N/A   Scattered Clouds
7:50 AM 75.2 °F - 73.4 °F 94% 30.02 in 10.0 mi NW 10.4 mph - N/A   Mostly Cloudy
8:50 AM 80.6 °F 84.6 °F 71.6 °F 74% 30.04 in 10.0 mi NW 10.4 mph - N/A   Mostly Cloudy
9:50 AM 82.4 °F 87.2 °F 71.6 °F 70% 30.03 in 10.0 mi North 13.8 mph - N/A   Mostly Cloudy
10:50 AM 86.0 °F 89.4 °F 68.0 °F 55% 30.03 in 10.0 mi North 9.2 mph - N/A   Mostly Cloudy
11:50 AM 89.6 °F 92.2 °F 66.2 °F 46% 30.03 in 10.0 mi North 11.5 mph 17.3 mph N/A   Mostly Cloudy
1:50 PM 96.8 °F 96.2 °F 59.0 °F 28% 29.99 in 10.0 mi North 6.9 mph - N/A   Scattered Clouds
2:50 PM 98.6 °F 99.4 °F 60.8 °F 29% 29.96 in 10.0 mi West 11.5 mph - N/A   Scattered Clouds
3:50 PM 98.6 °F 98.5 °F 59.0 °F 27% 29.94 in 10.0 mi North 17.3 mph - N/A   Partly Cloudy
4:59 PM 100.4 °F 100.2 °F 59.0 °F 25% 29.92 in 10.0 mi North 8.1 mph - N/A   Scattered Clouds
5:50 PM 100.4 °F 100.2 °F 59.0 °F 25% 29.90 in 10.0 mi NNW 10.4 mph - N/A   Scattered Clouds
6:50 PM 98.6 °F 97.6 °F 57.2 °F 25% 29.89 in 10.0 mi NNW 11.5 mph 18.4 mph N/A   Partly Cloudy
7:55 PM 95.0 °F 95.2 °F 60.8 °F 32% 29.89 in 10.0 mi North 8.1 mph - N/A   Partly Cloudy
8:50 PM 86.0 °F 88.2 °F 66.2 °F 51% 29.89 in 10.0 mi North 4.6 mph - N/A   Scattered Clouds
9:15 PM 86.0 °F 87.3 °F 64.4 °F 48% 29.90 in 10.0 mi NNE 9.2 mph - N/A   Clear
9:35 PM 82.4 °F 83.9 °F 64.4 °F 54% 29.90 in 10.0 mi NNE 6.9 mph - N/A   Clear
9:55 PM 80.6 °F 82.7 °F 66.2 °F 61% 29.90 in 10.0 mi NNE 8.1 mph - N/A   Clear
10:15 PM 80.6 °F 82.3 °F 64.4 °F 58% 29.91 in 10.0 mi NNE 6.9 mph - N/A   Clear
10:35 PM 78.8 °F - 64.4 °F 61% 29.91 in 10.0 mi NNE 8.1 mph - N/A   Clear
10:55 PM 78.8 °F - 62.6 °F 57% 29.91 in 10.0 mi NNE 9.2 mph - N/A   Clear
11:15 PM 77.0 °F - 62.6 °F 61% 29.91 in 10.0 mi NNE 9.2 mph - N/A   Clear
11:35 PM 77.0 °F - 60.8 °F 57% 29.91 in 10.0 mi NE 8.1 mph - N/A   Clear
11:55 PM 77.0 °F - 62.6 °F 61% 29.92 in 10.0 mi NNE 5.8 mph - N/A   Clear